EHI
0 0 0 1 1 1 0 0 0 0 0 0 0 0 0 0 0 2 3 4 7 9 9 7 4 2 2 2 3 4 4 3 2 1 0 0 0 0 0 0 0 0 0 0 0 0 0 0 0
0 0 0 0 0 0 0 0 0 0 0 0 0 0 1 1 3 5 6 7 7 8 8 7 6 4 3 2 2 4 4 3 1 0 0 0 0 0 0 0 0 0 0 0 0 0 0 0 0
0 0 0 0 0 0 0 0 1 1 1 0 0 1 2 4 7 9 11 10 8 7 7 8 7 5 3 1 1 3 3 2 1 0 0 0 0 0 0 0 0 0 0 0 0 0 0 0 0
0 0 0 0 0 0 0 0 1 2 1 0 0 2 6 9 11 14 16 12 8 6 7 10 9 5 3 1 1 1 2 2 1 0 0 0 0 0 0 0 0 0 0 0 0 0 0 0 0
0 0 0 0 0 0 0 0 1 1 0 0 1 6 12 16 17 21 21 14 8 6 9 11 9 6 4 3 1 1 2 3 2 0 0 0 0 0 0 0 0 0 0 0 0 0 0 0 0
0 0 0 0 0 0 0 0 0 0 0 0 1 8 18 23 26 29 25 14 7 6 9 10 8 6 5 5 4 3 3 3 1 0 0 0 0 0 0 0 0 0 0 1 0 0 0 0 0
0 0 0 0 0 0 0 0 0 0 0 0 1 7 19 28 34 37 30 17 8 6 8 8 5 3 3 4 4 4 3 1 0 0 0 0 0 0 0 0 0 0 0 0 0 0 0 0 0
0 0 0 0 0 0 0 0 0 0 1 1 2 9 23 36 42 45 40 27 17 11 8 6 5 2 2 1 2 2 2 1 0 0 0 0 0 0 0 0 0 0 0 0 0 0 0 0 0
0 0 0 0 0 0 0 0 1 2 4 4 7 16 32 45 50 51 48 39 28 18 12 9 7 4 2 0 1 2 2 2 1 0 0 0 0 0 0 0 0 0 0 0 0 0 0 0 0
0 0 0 0 0 1 1 1 1 4 5 6 13 27 42 50 52 51 47 42 35 26 17 12 8 5 2 1 2 4 4 3 2 1 1 0 0 0 0 1 0 0 0 0 0 0 0 0 0
0 0 0 0 0 1 2 1 1 2 3 5 16 34 47 49 48 46 42 39 35 28 20 14 10 6 3 3 6 8 8 5 3 2 2 2 1 0 0 1 0 0 1 1 0 0 0 0 0
0 0 0 0 0 1 1 1 0 0 1 5 17 35 45 44 41 40 38 36 31 25 19 15 13 9 7 9 10 12 12 8 5 3 3 3 2 1 2 2 1 1 1 1 0 0 0 0 0
0 0 0 0 0 1 0 0 0 1 3 8 20 33 39 38 37 36 36 33 28 23 19 17 14 11 11 14 14 13 13 10 8 5 2 1 1 2 4 4 2 1 1 1 0 0 0 0 0
0 0 0 0 0 0 0 0 1 4 7 12 22 30 32 32 33 34 34 32 27 22 19 15 12 10 11 12 14 14 12 10 9 6 2 1 1 3 4 4 2 1 0 0 1 1 1 0 0
0 0 0 0 0 0 0 0 2 7 10 14 21 26 28 28 28 29 30 28 24 19 16 13 10 10 10 9 10 11 10 8 8 5 3 2 2 3 3 2 1 1 1 1 1 2 2 1 0
0 0 0 0 0 0 0 1 4 8 11 13 19 25 27 27 26 25 24 22 19 16 13 10 9 9 9 10 9 8 8 8 6 5 4 4 4 3 2 1 1 1 1 1 1 1 1 1 0
0 0 0 0 0 0 0 1 4 8 9 12 18 23 26 27 26 24 22 18 15 14 13 11 8 8 9 11 10 9 8 7 6 5 4 4 4 3 2 2 2 2 2 1 0 0 0 0 0
0 0 0 0 0 0 0 0 3 8 10 12 16 21 24 25 24 22 20 17 14 14 15 14 11 11 12 12 12 11 8 5 5 5 4 3 2 2 1 2 3 3 2 1 0 0 0 0 0
0 0 0 0 0 0 0 0 4 10 12 13 16 21 23 24 23 21 18 15 13 13 16 17 16 16 16 15 14 13 8 5 5 4 3 2 1 0 1 3 4 3 1 1 0 0 0 0 0
0 0 0 0 0 0 0 0 4 10 13 13 17 22 24 24 24 22 18 15 13 14 16 18 18 18 17 16 14 12 9 6 4 4 3 3 1 1 2 3 3 2 1 0 0 0 0 0 0
0 0 0 0 0 0 0 1 4 7 10 12 17 23 25 24 24 21 18 16 15 16 15 16 18 17 16 13 10 9 9 6 3 3 4 4 1 1 3 3 2 1 0 0 0 0 0 0 0
0 0 0 0 0 0 0 1 3 6 7 11 17 22 23 23 22 21 19 17 16 16 16 16 18 17 14 11 7 6 5 3 2 3 4 3 1 1 2 2 1 0 0 0 0 0 0 0 0
0 0 0 0 0 0 0 0 2 5 6 9 16 21 22 22 22 20 19 18 16 15 15 16 17 17 14 10 7 6 3 1 2 4 4 3 2 2 2 2 1 0 0 0 0 0 0 0 0
0 0 0 0 0 0 0 0 1 2 3 5 11 18 22 23 21 20 20 19 16 14 13 14 15 16 14 10 8 6 3 1 2 4 4 3 3 3 3 2 2 1 0 0 0 0 0 0 0
0 0 0 0 0 0 0 0 0 0 1 1 5 13 22 24 22 20 21 21 17 14 12 12 13 14 11 7 5 3 2 1 1 3 3 3 3 3 3 2 2 1 0 0 0 0 0 0 0
0 0 0 0 0 0 0 0 0 0 0 0 2 8 18 23 22 20 22 22 19 15 12 11 11 12 10 6 3 1 1 1 1 1 2 1 1 2 3 3 2 1 0 0 0 0 0 0 0
0 0 0 0 0 0 0 0 0 0 0 0 1 4 11 18 19 19 21 22 20 16 13 11 10 10 9 6 4 1 0 1 1 0 0 0 0 1 2 2 2 1 0 0 0 0 0 0 0
0 0 0 0 0 0 0 0 0 0 0 0 0 2 7 14 18 20 20 20 18 15 12 10 8 8 6 4 2 1 0 1 0 0 0 0 0 0 1 1 1 0 0 0 0 0 0 0 0
0 0 0 0 0 0 0 0 0 0 1 0 0 2 5 12 17 18 18 17 16 14 11 8 7 5 3 1 1 0 1 1 0 0 0 0 0 0 0 0 0 0 0 0 0 0 0 0 0
0 0 0 0 0 0 0 0 0 0 1 0 1 2 5 10 15 16 15 15 16 14 12 9 6 4 2 0 0 1 1 1 0 0 0 0 0 0 0 0 0 0 0 0 0 0 0 0 0
Wind_Speed
10 9 6 5 8 6 2 3 2 4 4 3 3 1 1 3 3 6 8 14 15 16 17 17 14 14 14 14 14 14 14 14 13 13 12 12 11 11 11 11 11 12 12 13 12 12 12 12 12
7 6 6 7 7 4 3 3 3 3 5 5 4 2 2 4 6 8 11 14 17 16 16 16 17 15 15 14 14 14 14 13 13 12 12 12 11 11 11 11 12 12 12 12 12 12 12 12 12
7 7 7 6 4 2 3 3 3 5 6 5 4 2 2 5 6 8 11 16 17 16 15 17 17 16 15 14 13 13 13 13 13 12 12 11 11 11 11 11 12 11 12 12 12 11 11 11 11
6 7 7 7 4 1 1 2 3 6 6 4 5 5 5 5 3 8 15 17 17 16 16 18 16 16 15 14 13 13 13 13 12 12 11 11 11 11 11 11 12 11 11 11 11 11 11 10 11
7 7 7 6 3 2 1 1 4 5 6 5 5 5 6 4 5 12 16 16 16 15 15 18 16 16 15 14 13 13 12 12 12 11 11 11 11 11 11 11 11 11 11 11 10 10 10 10 10
6 6 7 4 4 3 2 3 5 4 4 5 5 5 6 6 9 14 16 14 14 14 14 16 16 15 15 14 13 13 12 12 12 11 11 11 11 11 10 10 10 11 10 10 10 10 9 9 9
7 6 6 3 3 3 2 3 4 4 5 5 4 6 7 8 10 14 14 13 13 13 13 14 14 14 14 13 13 12 12 11 11 11 10 10 10 10 10 10 10 10 9 9 9 9 8 8 8
6 6 6 5 4 3 4 3 1 3 3 3 3 4 7 11 13 14 13 12 11 11 12 12 12 12 13 13 13 12 12 11 10 11 10 10 10 10 9 10 9 9 9 8 8 8 7 7 7
7 8 5 3 2 3 4 4 3 1 5 4 2 2 8 16 16 15 13 12 11 10 9 10 11 11 11 11 13 12 12 11 10 10 10 9 8 9 8 9 9 8 8 8 7 7 6 5 7
8 7 2 1 1 0 3 3 4 6 7 6 6 8 13 16 16 16 16 15 14 12 11 9 10 10 10 9 10 8 9 9 7 7 8 6 4 4 6 10 7 7 7 7 6 5 6 7 6
7 5 1 1 2 2 3 4 4 6 6 6 8 13 15 15 15 15 14 14 14 13 11 10 9 9 9 6 7 5 4 6 6 7 5 4 4 4 5 5 6 6 7 6 7 7 4 2 1
7 5 4 3 2 3 3 4 4 4 1 2 6 14 17 16 15 15 14 13 12 12 11 10 9 8 7 6 5 5 5 5 5 6 6 5 3 3 3 2 4 3 3 2 2 2 2 1 2
9 5 4 4 4 3 3 5 4 4 2 4 9 14 16 15 14 13 12 12 12 12 11 10 9 8 7 6 5 5 5 5 5 5 4 4 4 3 3 2 2 2 2 3 2 1 2 2 3
5 5 5 5 5 5 6 5 6 5 6 8 11 13 14 14 14 13 13 12 12 12 11 10 10 9 7 6 5 4 5 4 5 5 5 4 3 3 3 3 2 2 2 1 2 2 2 2 1
5 7 7 7 6 6 6 8 8 7 9 10 11 12 13 13 13 13 12 12 12 12 11 10 10 9 8 7 7 5 4 5 4 4 5 4 3 3 3 2 3 2 2 2 2 2 2 2 2
8 9 9 7 7 6 9 8 7 8 10 10 11 12 12 12 12 11 12 11 11 11 11 10 9 10 9 7 6 5 4 5 4 4 4 4 3 3 3 2 2 2 2 2 2 2 2 1 1
10 9 7 6 8 6 9 6 6 9 11 11 11 12 12 12 12 11 11 12 11 11 11 10 9 10 9 8 6 5 4 4 4 4 3 4 4 3 3 2 2 3 2 2 2 2 1 1 1
7 7 7 6 7 8 10 7 6 10 11 11 12 12 12 12 12 11 11 11 10 10 10 11 10 9 9 7 6 5 5 4 4 4 4 4 4 4 3 2 2 3 2 2 1 1 1 1 1
6 8 7 5 3 7 10 9 8 10 12 12 13 13 13 12 12 12 11 11 11 11 11 11 10 10 8 7 7 6 6 5 4 4 5 5 4 4 2 2 3 2 2 1 2 2 3 2 1
9 10 8 5 4 7 8 9 8 10 13 13 14 14 14 13 13 13 12 12 12 12 12 12 12 11 10 7 5 4 5 4 4 4 5 5 5 4 3 2 2 2 2 2 2 2 1 1 2
10 10 8 6 4 8 8 10 9 10 11 12 13 14 14 15 15 14 13 13 12 12 12 11 12 12 10 9 7 6 5 5 5 5 5 5 5 4 3 3 2 1 2 2 2 2 2 2 2
9 6 7 7 9 6 6 8 7 10 11 13 14 15 15 15 15 15 15 14 13 12 12 12 12 12 11 10 9 10 7 6 6 5 5 6 5 5 4 4 3 1 1 2 2 2 1 2 2
6 3 6 8 10 10 8 9 4 9 11 14 15 16 16 16 16 16 15 14 13 12 12 12 12 11 11 11 10 9 7 6 6 6 7 6 6 5 5 4 3 2 1 2 1 1 1 1 1
5 5 6 9 10 11 7 9 6 6 8 9 14 16 17 16 16 16 14 13 13 13 12 12 12 12 12 11 11 10 9 8 9 8 8 7 6 5 6 5 4 3 2 2 2 1 2 1 1
9 9 7 8 8 7 3 7 5 1 3 6 10 15 16 16 16 16 16 15 14 14 13 13 13 12 12 12 11 10 10 10 10 9 8 7 6 5 6 5 4 3 3 2 2 2 1 1 1
10 11 9 7 6 4 5 7 2 1 2 4 7 11 15 16 15 15 16 16 15 15 14 13 13 12 12 11 10 10 10 9 8 9 7 7 5 5 7 6 5 4 4 3 3 2 3 2 1
9 10 8 10 10 8 4 4 3 3 4 6 9 12 14 16 16 16 16 16 16 15 15 14 13 12 12 11 11 9 10 8 8 8 7 6 5 6 7 6 6 5 4 3 3 2 2 2 2
8 6 6 8 8 8 6 5 2 3 5 7 10 12 13 15 16 16 16 16 15 15 14 14 13 13 12 12 11 9 9 9 8 8 8 7 7 6 8 7 6 5 5 4 4 4 3 3 2
8 8 9 8 8 9 7 2 2 0 3 6 9 11 13 15 16 16 15 15 15 15 15 14 13 13 12 12 11 10 10 10 9 8 9 8 8 8 8 7 6 6 5 5 4 3 4 4 3
7 9 10 9 8 9 9 2 4 1 2 5 7 9 12 13 15 15 16 16 15 16 15 14 14 13 13 12 12 11 10 10 10 10 9 9 9 8 8 7 7 7 6 5 5 5 5 4 4
Wind_Direction
196 198 213 230 236 228 156 108 111 129 119 107 123 144 42 43 8 65 113 144 145 145 141 149 147 143 139 136 134 134 133 131 129 126 122 119 117 114 111 108 107 108 108 107 106 107 107 106 106
189 189 222 237 252 221 133 124 138 98 101 126 141 160 119 81 59 102 137 145 148 145 145 149 145 145 141 139 136 135 134 132 129 126 123 120 119 116 111 108 108 108 107 107 107 106 105 105 107
189 221 250 243 247 272 114 128 113 113 133 156 146 119 59 81 104 129 140 150 149 147 145 138 148 145 142 140 138 137 135 134 130 127 125 123 120 116 111 110 108 107 108 107 106 106 104 106 108
203 218 233 244 217 97 58 123 134 151 158 172 164 128 95 66 114 135 144 153 151 150 145 140 150 146 145 144 141 139 138 135 132 129 126 124 120 116 112 111 111 108 107 107 107 107 106 107 110
235 244 230 221 193 135 193 189 183 193 168 171 183 140 114 97 122 139 150 154 151 149 143 142 150 148 148 148 146 143 140 137 134 130 126 122 119 116 114 110 110 110 109 107 108 106 106 109 112
225 238 235 208 158 158 179 188 198 204 171 166 182 152 108 120 137 146 151 153 151 148 142 139 148 149 150 150 148 146 142 139 135 130 126 122 119 117 114 111 109 109 108 107 107 106 106 110 113
248 241 242 219 161 168 151 173 204 196 183 170 177 151 123 138 142 147 147 153 151 150 145 146 153 154 153 151 149 146 143 140 137 132 127 122 119 117 115 113 112 110 108 108 108 107 104 106 111
261 251 221 203 200 154 137 165 181 217 154 124 184 178 148 148 147 146 147 149 150 153 150 151 155 156 158 154 151 148 142 140 138 135 131 127 127 125 125 132 117 115 112 110 110 110 108 107 112
245 243 218 189 202 134 143 171 141 153 136 144 149 53 117 140 149 150 151 152 155 156 152 156 155 158 161 156 150 152 147 144 147 143 141 159 156 141 150 113 121 125 121 117 115 116 119 136 134
232 240 211 56 300 103 155 194 167 180 171 162 145 116 129 147 156 161 163 164 164 163 160 162 160 160 164 160 151 161 159 153 162 145 157 163 133 132 123 116 127 129 130 135 130 135 171 212 161
229 250 231 201 247 253 211 199 194 209 191 185 171 152 152 157 164 168 170 170 167 165 163 163 164 166 166 155 157 158 150 149 154 148 154 144 150 149 145 144 148 153 169 166 154 184 192 181 110
227 234 246 249 246 242 243 209 197 222 206 141 162 157 161 167 173 174 173 171 167 167 166 164 163 166 166 158 153 156 157 158 155 148 168 157 155 149 138 146 144 162 165 159 182 191 153 168 170
220 225 223 224 227 237 226 218 210 201 173 138 142 156 167 169 173 175 173 170 168 169 168 165 167 166 162 158 167 160 164 158 148 151 158 165 164 161 145 139 160 178 158 171 180 186 163 190 188
208 216 217 217 223 217 218 213 210 187 163 151 155 164 169 171 172 173 174 173 173 171 168 166 170 166 163 161 161 160 162 155 159 161 155 171 158 152 155 164 171 173 179 163 190 170 186 205 184
210 216 212 209 212 210 216 217 212 174 170 164 165 168 171 174 174 177 177 177 177 173 169 168 170 164 166 166 166 163 162 164 161 153 152 159 161 153 174 167 177 169 170 169 192 175 199 206 198
211 222 219 186 203 196 229 231 172 172 180 175 171 170 173 178 181 180 178 178 176 173 169 172 170 164 167 165 168 165 167 160 159 157 149 151 149 162 189 183 170 164 186 184 172 203 200 187 211
210 224 226 182 194 204 230 246 155 176 188 185 179 177 178 179 182 180 179 177 176 174 170 170 167 164 165 161 163 162 154 155 154 149 143 144 153 167 192 184 142 195 195 194 214 154 213 185 189
218 234 228 224 187 219 234 239 180 187 197 195 187 183 183 184 183 176 176 174 172 174 172 169 165 162 161 157 157 156 150 151 147 144 140 151 154 160 181 170 164 205 190 186 182 152 178 199 206
261 258 254 251 215 237 243 243 209 194 201 199 194 189 189 187 179 172 174 173 171 174 173 171 166 163 164 163 166 163 159 155 150 153 149 155 150 148 173 156 149 211 168 180 192 202 176 188 189
244 248 249 235 198 244 256 252 226 202 208 205 198 193 190 180 174 175 175 176 179 178 175 170 169 169 173 166 158 154 145 149 143 140 145 151 146 152 157 145 168 163 153 168 188 215 240 186 200
237 250 256 259 226 226 256 246 215 202 208 208 202 195 192 184 180 177 178 181 181 180 179 175 171 171 171 160 156 149 148 154 152 157 157 152 151 152 130 145 137 150 196 150 187 205 221 208 185
240 240 256 252 249 241 236 271 209 193 201 205 201 195 192 187 184 181 180 181 183 181 177 174 172 172 168 169 170 170 173 169 165 168 155 154 159 156 149 146 137 167 151 134 193 123 228 228 195
258 258 250 253 256 264 234 261 238 184 210 208 200 197 193 189 186 184 182 179 179 176 175 173 172 173 174 179 174 179 177 169 162 163 153 161 154 160 156 151 148 159 151 109 71 98 298 235 249
225 221 231 241 249 251 248 258 259 205 217 204 193 194 192 188 186 182 178 176 176 175 174 171 172 173 175 180 179 185 176 171 166 167 163 171 160 162 160 158 156 165 138 130 126 126 126 21 11
217 231 233 229 228 245 217 254 265 253 220 213 191 189 187 186 183 178 176 178 178 177 175 173 171 173 177 180 182 183 179 174 173 174 172 175 167 165 162 160 159 151 138 142 140 136 91 116 122
221 240 252 267 266 262 195 245 272 112 197 196 188 182 179 182 182 179 178 179 179 177 175 174 173 174 175 179 178 179 179 180 176 179 175 178 175 159 155 160 160 156 157 156 154 163 150 136 152
224 233 260 269 271 273 247 236 217 182 190 184 178 176 178 180 180 179 177 177 176 175 175 175 174 172 173 175 174 177 181 182 171 169 180 173 165 157 162 164 162 160 159 158 179 145 151 154 187
254 244 229 249 268 265 253 244 253 190 191 181 180 180 179 178 178 176 175 175 175 175 173 174 174 172 171 172 176 173 176 176 171 176 176 169 167 161 165 167 166 164 164 167 185 168 147 160 150
203 220 242 255 263 272 274 270 51 265 198 187 181 178 175 177 176 174 173 173 174 174 172 174 173 173 173 174 176 171 174 172 172 174 173 171 169 166 170 170 170 171 171 170 182 184 164 177 162
243 244 242 249 253 257 275 280 84 89 171 181 176 172 171 173 171 171 171 172 174 174 172 174 175 176 176 175 174 173 170 171 174 174 173 171 170 174 172 174 177 181 176 178 186 188 177 182 180